Helicity
108 53 60 44 56 64 52 56 69 55 61 78 86 89 92 99 99 96 99 100 93 94 87 82 76 71 73 69 61 60 61 54 53 46 42 34 27 26 27 27 24 18 26
115 77 60 53 39 56 75 81 105 95 89 89 81 88 92 88 88 88 90 95 97 96 90 80 69 68 67 69 61 48 51 60 53 41 41 37 19 22 21 20 16 22 21
161 109 74 84 78 75 119 127 169 153 136 124 103 77 74 73 71 75 81 81 82 81 83 79 63 56 62 59 57 64 50 51 54 44 36 26 24 18 17 12 9 17 21
166 127 100 112 117 119 123 191 168 152 163 140 135 105 118 125 125 119 108 97 88 76 62 62 61 56 66 53 48 49 62 48 42 45 31 30 24 26 10 9 6 8 21
176 123 94 108 127 139 167 160 169 141 164 146 139 143 163 174 172 165 159 155 161 154 129 108 93 93 80 66 57 48 45 58 46 28 35 29 23 29 16 1 8 11 18
155 149 160 157 180 162 173 136 165 145 158 139 137 138 162 181 200 207 200 186 188 182 169 158 148 138 100 72 66 57 53 41 53 39 33 36 20 27 15 14 -0 7 18
141 122 165 189 208 192 181 160 163 160 172 157 162 159 173 176 187 205 212 202 199 190 180 171 161 160 152 129 88 69 61 51 45 51 41 34 25 26 18 18 10 14 24
173 186 212 218 223 219 182 191 174 174 172 169 175 172 176 179 176 183 174 176 183 178 168 157 152 152 161 162 151 137 97 63 57 50 51 45 42 24 20 24 24 21 38
235 185 162 170 176 214 180 176 155 171 169 168 173 170 180 179 178 165 174 155 153 142 143 147 137 131 126 128 143 147 149 118 64 58 52 52 57 36 20 19 34 33 33
225 182 164 150 151 139 139 145 157 181 190 199 197 197 175 167 168 166 149 135 130 127 124 109 116 121 122 109 101 109 132 121 87 68 62 59 59 41 29 12 30 30 23
203 207 170 141 137 136 118 127 144 156 166 171 169 175 144 116 113 115 124 121 112 113 99 96 100 98 100 91 97 109 82 89 103 102 78 59 53 47 46 39 29 28 25
174 162 145 133 123 98 90 89 97 116 133 140 140 134 107 105 103 96 91 101 96 105 85 90 78 68 71 69 72 94 96 96 86 85 88 151 107 63 57 54 53 41 33
144 137 136 122 110 103 98 95 105 107 104 113 141 126 109 88 79 72 67 70 69 84 57 57 61 62 71 59 54 60 91 90 90 89 96 116 137 174 120 67 70 62 44
138 116 100 91 88 89 77 91 93 102 103 99 108 119 91 73 75 69 57 55 46 41 50 46 24 37 51 60 71 64 61 74 104 101 84 86 113 129 135 155 109 84 71
144 101 75 67 77 85 107 104 115 115 109 101 96 95 76 61 50 41 40 37 31 26 24 24 29 33 43 54 61 70 86 78 68 71 82 75 80 100 112 127 154 123 101
111 98 80 87 86 88 98 107 100 103 98 96 90 84 77 58 57 47 44 42 36 26 16 6 14 14 23 40 57 77 80 89 84 65 55 58 72 89 107 115 110 148 147
108 82 89 87 89 104 112 115 111 100 82 72 62 82 86 84 76 57 39 26 17 -2 -8 -12 -13 -15 -8 10 38 49 61 70 83 99 89 66 63 58 78 108 114 117 137
122 119 112 99 112 118 107 94 82 75 76 79 91 105 126 123 110 67 51 42 34 4 -13 -25 -33 -30 -18 -12 5 29 54 61 63 79 100 111 100 100 91 82 130 138 148
168 138 121 105 101 91 82 73 81 90 96 103 108 111 118 104 89 50 40 35 20 -4 -11 -12 -27 -40 -38 -25 -20 4 20 60 96 103 105 120 128 113 114 113 102 132 139
178 145 123 101 85 79 68 75 87 99 112 121 124 121 124 99 93 78 58 50 25 9 -0 -9 -20 -47 -73 -48 -26 -26 20 38 79 160 213 194 204 209 205 174 169 152 143
194 156 114 88 69 54 58 71 77 91 106 116 116 121 113 96 82 79 56 49 34 24 15 1 -17 -20 -71 -39 -87 -30 16 74 144 252 207 215 328 284 306 294 254 248 229
190 149 130 104 68 54 50 57 59 73 94 88 86 83 78 76 87 75 71 59 56 31 33 19 -0 -37 -112 -74 -88 -138 -50 13 127 211 241 244 279 282 311 297 285 300 262
198 162 126 104 88 84 71 70 87 79 76 90 82 66 80 91 92 80 76 58 55 46 37 20 -5 -19 -65 -139 -118 -109 -111 -25 51 147 227 224 215 259 251 269 252 258 278
179 145 127 112 98 92 67 70 89 102 99 84 64 69 82 93 88 86 83 72 60 40 50 29 3 -19 -48 -72 -134 -92 -80 -45 -33 -7 128 174 204 196 193 172 192 209 252
158 127 102 94 115 105 102 82 95 125 92 61 57 84 88 98 101 97 84 76 67 48 43 36 21 15 -24 -47 -75 -90 -111 -48 41 3 36 169 234 237 208 176 185 180 204
136 106 95 100 104 82 84 103 98 84 64 71 96 92 90 89 79 89 74 65 64 57 54 39 27 24 -8 -44 -65 -83 -78 -53 -21 7 39 105 160 196 173 170 213 181 163
Wind_Speed
9 15 19 24 26 26 27 29 27 30 34 35 34 33 33 32 32 32 31 31 30 29 29 29 30 31 32 35 35 35 35 36 36 35 34 33 30 27 24 22 21 21 20
7 13 17 20 24 23 25 25 27 28 32 33 32 31 31 31 31 31 32 31 30 29 29 30 31 32 34 34 35 37 36 35 36 35 33 31 29 27 23 20 18 19 18
8 13 16 19 21 21 24 27 27 27 31 32 33 31 31 31 30 30 30 30 31 31 31 31 32 34 35 35 36 36 38 37 35 36 34 30 27 25 22 19 19 17 14
11 14 16 18 19 21 23 29 27 27 30 32 33 33 34 35 36 37 35 35 34 33 33 34 35 37 36 38 38 38 37 38 38 36 34 31 28 25 22 23 21 16 13
13 15 17 17 18 21 25 27 26 27 30 32 33 34 35 37 39 40 41 42 42 43 43 43 42 42 42 42 43 42 41 38 39 38 34 34 30 26 29 27 21 17 15
14 17 18 17 18 20 25 27 26 28 30 31 32 34 36 37 39 40 42 45 46 47 47 48 48 48 47 45 45 46 44 45 40 40 38 36 35 33 32 32 10 18 16
14 18 20 18 19 19 24 25 26 29 31 33 35 36 38 39 40 42 44 46 48 49 50 51 51 51 50 51 50 50 50 48 47 43 43 40 39 38 38 34 22 6 8
17 18 17 17 18 20 23 25 26 30 32 34 36 38 40 42 45 46 48 49 49 50 53 53 53 55 55 53 53 54 55 54 49 45 41 44 44 48 45 42 42 13 18
21 19 18 17 19 22 24 25 27 30 33 35 37 39 42 45 47 50 51 53 55 55 55 55 56 57 56 55 56 57 58 59 55 49 45 42 41 46 52 51 46 30 16
21 19 19 20 21 23 25 26 28 31 34 36 39 43 44 46 49 52 54 57 57 59 59 59 58 59 61 59 58 60 62 59 58 56 53 50 47 55 55 54 48 49 27
22 22 21 21 21 23 25 27 30 32 35 40 43 46 46 48 52 54 56 59 61 62 61 63 64 62 64 61 62 63 61 54 59 61 59 56 57 59 61 60 57 61 48
19 21 21 21 22 23 25 27 30 34 38 42 45 48 49 52 54 57 59 62 62 65 65 65 66 66 63 63 63 63 59 62 60 59 61 62 65 64 62 53 56 58 56
17 20 21 22 23 25 27 29 32 36 40 43 47 50 52 54 57 58 60 63 66 68 66 68 68 65 68 67 66 65 67 66 64 65 62 66 70 70 75 71 55 41 35
17 19 22 23 24 26 28 33 36 40 43 46 50 54 55 56 58 60 61 63 65 68 69 69 69 71 71 71 71 72 70 69 67 69 72 74 72 74 75 75 73 58 42
16 18 21 23 25 29 32 36 39 42 45 47 50 54 55 57 58 60 61 63 65 66 68 70 72 74 75 75 74 75 75 75 74 74 76 78 80 77 77 78 78 74 60
17 21 23 26 29 31 34 36 39 42 45 47 50 53 55 56 59 60 62 64 66 68 69 69 72 74 76 77 78 78 79 78 78 78 78 81 80 80 78 75 76 79 73
18 20 25 28 31 33 35 38 40 42 43 46 48 52 55 56 58 59 61 64 67 67 71 71 72 73 76 78 80 80 80 80 80 81 81 80 80 79 78 80 77 77 79
18 23 27 29 31 34 35 37 39 41 42 45 47 50 54 57 60 59 61 65 68 68 70 73 76 77 79 80 83 82 82 81 80 80 79 78 77 78 77 76 77 76 75
20 22 26 29 31 33 35 37 39 41 43 45 47 51 55 57 59 58 61 65 65 67 70 74 75 78 81 81 85 86 82 81 77 73 72 72 72 73 74 75 75 77 78
21 24 28 31 32 34 35 37 39 41 43 45 49 52 55 55 57 60 60 63 64 66 70 73 76 77 77 81 86 82 82 72 62 63 65 62 60 64 65 67 69 69 71
25 27 30 31 33 35 38 39 41 42 44 47 49 52 54 56 58 60 61 63 65 66 69 72 74 78 76 82 78 80 68 60 55 65 61 56 64 59 60 62 61 63 61
26 28 31 33 34 35 34 33 37 40 43 44 46 50 53 56 58 59 62 64 64 65 68 71 75 77 74 79 77 74 74 60 61 72 61 61 66 63 65 65 64 64 62
27 27 29 30 31 32 32 32 35 38 41 45 47 49 54 55 57 57 59 61 61 62 65 68 72 75 77 75 70 70 72 70 79 55 63 68 65 70 69 67 63 60 59
23 24 27 29 30 33 36 37 38 41 42 42 43 46 49 53 56 58 58 59 60 60 64 65 66 70 72 76 70 72 63 64 68 71 63 65 71 68 65 62 59 56 56
19 21 24 28 31 34 36 35 36 37 38 38 40 44 49 53 55 57 57 57 58 58 60 62 63 67 66 69 72 73 68 65 51 63 69 70 64 57 59 48 50 51 52
14 15 19 23 27 31 33 36 35 34 34 37 40 44 48 50 53 56 56 56 56 57 59 60 59 61 63 65 68 69 67 62 66 61 62 67 59 52 44 44 48 50 52
Wind_Direction
349 23 28 40 41 37 39 49 39 41 50 47 44 44 41 40 41 43 44 44 40 34 29 23 14 8 5 359 356 357 355 350 350 351 351 351 352 1 7 10 14 19 38
30 24 21 30 46 34 39 22 40 32 43 44 39 36 33 29 33 33 32 33 30 26 21 13 6 359 354 353 353 347 349 351 348 348 351 352 353 353 358 15 21 14 26
1 350 0 10 25 33 19 27 18 17 28 29 30 30 28 28 28 29 26 22 16 10 4 1 354 350 345 342 341 342 340 342 345 342 342 349 353 353 352 1 359 8 30
6 357 3 10 9 14 14 31 23 12 20 16 16 11 10 10 10 5 6 3 1 0 355 348 343 338 339 334 333 333 334 333 336 337 339 340 346 350 349 335 336 353 10
4 4 14 19 10 12 15 21 24 18 20 17 18 16 11 7 2 360 356 353 350 347 341 334 332 330 327 325 322 323 325 328 326 328 333 330 334 340 331 327 334 342 347
1 0 358 8 1 17 2 18 19 15 16 16 15 12 7 5 2 358 355 351 348 346 340 330 325 323 322 320 318 315 316 314 320 319 321 321 321 322 322 318 358 337 338
357 7 0 0 6 7 3 10 10 9 8 7 6 4 3 2 360 356 352 349 345 344 337 328 324 322 320 317 314 310 308 310 309 312 311 312 310 311 308 315 324 349 355
8 8 8 12 9 7 5 5 6 4 4 1 1 360 359 357 353 350 347 345 344 341 332 327 324 320 317 316 313 308 303 302 305 310 311 307 304 298 299 301 305 328 325
13 17 14 6 1 1 4 1 3 1 359 359 357 354 353 350 347 344 341 337 334 333 330 327 323 318 316 314 311 307 302 298 298 303 306 308 307 302 293 292 296 308 317
6 360 358 353 353 355 353 357 357 355 353 352 350 347 345 344 341 338 334 330 328 327 325 322 321 316 310 310 310 307 301 299 297 296 297 298 299 293 291 292 295 290 301
354 350 351 350 352 349 351 351 352 353 350 347 345 343 342 339 336 335 333 329 324 322 322 318 315 314 309 308 306 306 304 303 298 293 294 294 292 290 287 287 288 282 290
358 355 352 352 352 352 351 350 349 347 346 343 341 338 336 335 334 332 330 327 325 321 317 315 312 311 311 308 306 305 304 300 298 295 293 293 289 288 287 292 289 287 288
16 9 1 359 353 349 346 344 342 340 338 338 338 336 334 333 332 331 328 326 322 320 319 313 310 310 306 305 303 302 299 298 296 293 291 290 286 284 275 279 288 291 291
9 6 0 358 356 350 346 342 339 337 335 334 333 333 332 331 330 330 329 327 325 322 318 315 310 306 303 302 299 297 297 295 295 292 288 285 286 283 281 278 278 286 286
7 6 3 360 354 349 345 342 340 337 337 336 335 335 335 333 332 331 330 329 326 324 321 317 313 308 305 301 299 297 295 293 291 290 288 286 283 283 282 280 277 280 285
350 349 357 355 353 350 346 343 340 340 339 339 339 338 338 337 335 334 332 331 328 326 324 320 316 312 308 305 301 298 295 294 292 290 288 285 285 284 282 282 280 277 279
341 347 347 349 347 346 345 344 343 343 344 343 343 343 343 342 340 339 336 334 331 329 325 323 320 316 311 307 304 302 299 295 293 290 288 286 285 285 283 280 279 279 277
338 338 342 345 345 345 344 344 345 347 349 349 349 348 347 346 344 343 340 336 336 333 330 327 321 317 313 309 305 303 300 298 295 293 291 288 287 286 285 283 279 277 278
335 338 340 341 341 341 344 345 347 349 350 351 350 347 347 347 347 347 343 341 342 339 336 332 328 323 317 314 309 304 302 299 297 296 295 293 290 288 286 284 282 279 276
328 332 335 335 336 339 340 342 344 347 350 354 349 349 351 351 351 348 348 348 347 345 342 339 335 331 325 320 314 309 304 301 301 301 299 297 296 293 291 288 286 283 280
315 320 323 326 329 331 333 337 341 344 347 348 350 351 352 350 348 348 346 346 347 347 345 343 340 337 334 329 322 318 313 308 305 304 301 299 300 297 296 294 292 292 287
312 319 323 326 328 332 338 343 342 342 345 347 349 349 349 347 348 347 346 346 346 345 345 345 344 342 340 336 329 322 313 310 307 304 301 298 298 298 295 294 292 292 290
307 317 324 330 336 340 344 345 344 344 344 343 344 346 348 349 351 351 350 349 349 349 348 347 347 345 342 340 338 331 316 307 308 305 304 301 298 296 295 294 294 293 293
308 321 328 332 336 338 336 336 336 338 339 342 345 350 353 354 351 349 350 350 349 350 349 349 350 349 348 341 345 338 328 318 309 301 305 302 301 297 296 295 295 295 295
309 318 328 334 337 339 341 342 342 345 346 348 352 354 355 352 352 351 351 352 353 353 351 351 353 354 354 351 349 344 338 327 325 309 303 303 305 305 303 302 301 300 299
314 327 339 346 348 346 338 340 345 352 354 356 356 354 353 352 352 352 352 353 353 354 352 353 358 357 355 353 353 352 347 341 323 316 310 305 302 305 312 314 310 307 304